Hilo, HI

4:17 PM HST on August 25, 2016 (GMT -1000)
Hilo International

Weather History for PHTO - November, 2013

Change the Weather History Date:

Thursday, November 21, 2013

  Actual Average Record
Temperature  
Mean Temperature 75 °F 74 °F  
Max Temperature 81 °F 80 °F 85 °F (1950)
Min Temperature 69 °F 67 °F 61 °F (2003)
Cooling Degree Days 10 9  
Month to date cooling degree days 215 197  
Year to date cooling degree days 3187 2932  
Growing Degree Days 25 (Base 50)    
Moisture  
Dew Point 70 °F    
Average Humidity 87    
Maximum Humidity 100    
Minimum Humidity 74    
Precipitation  
Precipitation T in 0.52 in 5.43 in (1987)
Month to date precipitation 6.20 11.07  
Year to date precipitation 81.52 110.72  
Snow  
Snow 0.00 in - - ()
Month to date snowfall 0.0  
Since 1 July snowfall 0.0  
Since 1 September snowfall 0.0  
Snow Depth 0.00 in    
Sea Level Pressure  
Sea Level Pressure 29.98 in    
Wind  
Wind Speed 4 mph (SSE)    
Max Wind Speed 13 mph    
Max Gust Speed 15 mph    
Visibility 10 miles    
Events      
T = Trace of Precipitation, MM = Missing Value Source: NWS Daily Summary

Daily Weather History Graph

Daily Weather History Graph

Search for Another Location

Airport or City:

Trip Planner

Search our weather history database for the weather conditions in past years. The results will help you decide how hot, cold, wet, or windy it might be!

Date:

Astronomy

Nov. 21, 2013 Rise Set
Actual Time 6:32 AM HST 5:39 PM HST
Civil Twilight 6:09 AM HST 6:03 PM HST
Nautical Twilight 5:42 AM HST 6:30 PM HST
Astronomical Twilight 5:15 AM HST 6:56 PM HST
Moon 9:21 PM HST (11/21) 9:49 AM HST (11/21)
Length of Visible Light 11h 54m
Length of Day
11h 07m
Waning Gibbous, 84% of the Moon is Illuminated
Nov 21
Waning Gibbous
Nov 25
Last Quarter
Dec 2
New
Dec 9
First Quarter
Dec 16
Full

Hourly Weather History & Observations

Time (HST) Temp. Heat Index Dew Point Humidity Pressure Visibility Wind Dir Wind Speed Gust Speed Precip Events Conditions
12:53 AM 72.0 °F - 68.0 °F 87% 29.98 in 10.0 mi Calm Calm - N/A   Scattered Clouds
1:53 AM 69.1 °F - 66.9 °F 93% 29.98 in 10.0 mi Calm Calm - N/A   Clear
2:53 AM 70.0 °F - 66.9 °F 90% 29.97 in 10.0 mi Calm Calm - N/A   Clear
3:53 AM 70.0 °F - 66.0 °F 87% 29.97 in 10.0 mi SW 3.5 mph - N/A   Clear
4:53 AM 70.0 °F - 66.0 °F 87% 29.97 in 10.0 mi SW 4.6 mph - N/A   Clear
5:53 AM 70.0 °F - 64.9 °F 84% 29.98 in 10.0 mi SW 4.6 mph - N/A   Clear
6:53 AM 71.1 °F - 64.9 °F 81% 29.99 in 10.0 mi SW 8.1 mph - N/A   Mostly Cloudy
7:53 AM 72.0 °F - 66.9 °F 84% 30.01 in 10.0 mi Calm Calm - N/A   Mostly Cloudy
8:53 AM 73.0 °F - 68.0 °F 84% 30.02 in 10.0 mi Calm Calm - N/A   Overcast
9:53 AM 77.0 °F - 68.0 °F 74% 30.02 in 10.0 mi WSW 4.6 mph - N/A   Overcast
10:53 AM 80.1 °F 84.2 °F 73.0 °F 79% 30.01 in 10.0 mi South 5.8 mph - N/A   Overcast
11:53 AM 80.1 °F 84.2 °F 73.0 °F 79% 30.00 in 10.0 mi Variable 3.5 mph - N/A   Overcast
12:23 PM 80.1 °F 84.2 °F 73.0 °F 79% 29.98 in 10.0 mi ESE 6.9 mph - N/A   Overcast
12:45 PM 80.1 °F 83.8 °F 72.0 °F 76% 29.97 in 10.0 mi SE 5.8 mph - N/A   Overcast
12:53 PM 80.1 °F 84.2 °F 73.0 °F 79% 29.96 in 10.0 mi ESE 6.9 mph - N/A   Overcast
1:53 PM 81.0 °F 85.8 °F 73.0 °F 77% 29.94 in 10.0 mi NE 4.6 mph - N/A   Overcast
2:53 PM 80.1 °F 84.2 °F 73.0 °F 79% 29.94 in 10.0 mi ESE 8.1 mph - N/A   Overcast
3:08 PM 80.1 °F 84.2 °F 73.0 °F 79% 29.94 in 10.0 mi SE 5.8 mph - N/A   Overcast
3:53 PM 80.1 °F 84.5 °F 73.9 °F 81% 29.92 in 10.0 mi ESE 9.2 mph - N/A   Overcast
4:53 PM 78.1 °F - 73.0 °F 84% 29.94 in 10.0 mi SE 9.2 mph - N/A   Clear
5:53 PM 77.0 °F - 73.0 °F 88% 29.95 in 10.0 mi SE 5.8 mph - N/A   Scattered Clouds
6:53 PM 75.9 °F - 73.0 °F 91% 29.97 in 10.0 mi Calm Calm - N/A   Clear
7:53 PM 75.0 °F - 72.0 °F 90% 29.99 in 10.0 mi Calm Calm - N/A   Clear
8:53 PM 75.0 °F - 72.0 °F 90% 30.00 in 10.0 mi Calm Calm - N/A   Partly Cloudy
9:53 PM 73.9 °F - 73.0 °F 97% 30.01 in 10.0 mi Calm Calm - 0.00 in   Mostly Cloudy
10:53 PM 73.0 °F - 72.0 °F 96% 30.01 in 10.0 mi SSE 3.5 mph - N/A   Partly Cloudy
11:53 PM 72.0 °F - 71.1 °F 97% 30.00 in 10.0 mi SW 3.5 mph - N/A   Clear